NOZ962 ENBR-EKCH

Flight info

Callsign NOZ962
Flight time N/A
Altitude 35000
Route TUXIL DCT ZOL DCT TESPI
Aircraft B738/M-SDE2E3FGHIRWXY/LB1

Departure

Time 2026-04-27 18:18
Airport Bergen Airport, Flesland (ENBR)

Arrival

Time N/A
Airport Copenhagen Kastrup Airport (EKCH)
Time Latitude Longitude Altitude Speed Heading
2026-04-27 17:50 60.28967 5.22576 174 ft 0 kts 133°
2026-04-27 18:04 60.28971 5.22568 174 ft 4 kts 124°
2026-04-27 18:04 60.28979 5.22548 174 ft 4 kts 133°
2026-04-27 18:04 60.28998 5.22510 174 ft 4 kts 138°
2026-04-27 18:04 60.29019 5.22475 175 ft 4 kts 145°
2026-04-27 18:05 60.29042 5.22448 175 ft 4 kts 161°
2026-04-27 18:05 60.29054 5.22441 176 ft 1 kts 176°
2026-04-27 18:06 60.29053 5.22441 176 ft 0 kts 176°
2026-04-27 18:06 60.29051 5.22441 176 ft 0 kts 180°
2026-04-27 18:07 60.29049 5.22438 176 ft 0 kts 205°
2026-04-27 18:07 60.29046 5.22430 176 ft 2 kts 224°
2026-04-27 18:07 60.29011 5.22384 175 ft 10 kts 196°
2026-04-27 18:08 60.28942 5.22342 173 ft 12 kts 235°
2026-04-27 18:08 60.28847 5.22306 170 ft 17 kts 167°
2026-04-27 18:08 60.28714 5.22351 168 ft 21 kts 172°
2026-04-27 18:08 60.28620 5.22379 165 ft 16 kts 171°
2026-04-27 18:09 60.28496 5.22422 163 ft 21 kts 170°
2026-04-27 18:09 60.28395 5.22456 160 ft 14 kts 170°
2026-04-27 18:09 60.28316 5.22483 158 ft 4 kts 170°
2026-04-27 18:09 60.28275 5.22497 156 ft 6 kts 170°
2026-04-27 18:10 60.28247 5.22507 156 ft 5 kts 170°
2026-04-27 18:10 60.28211 5.22519 154 ft 0 kts 170°
2026-04-27 18:10 60.28209 5.22520 154 ft 2 kts 170°
2026-04-27 18:10 60.28172 5.22532 153 ft 2 kts 170°
2026-04-27 18:11 60.28165 5.22534 153 ft 0 kts 170°
2026-04-27 18:12 60.28149 5.22540 152 ft 6 kts 170°
2026-04-27 18:12 60.28099 5.22545 151 ft 0 kts 193°
2026-04-27 18:13 60.28090 5.22539 151 ft 4 kts 199°
2026-04-27 18:14 60.28069 5.22505 151 ft 7 kts 230°
2026-04-27 18:14 60.28056 5.22444 151 ft 0 kts 257°
2026-04-27 18:15 60.28055 5.22433 151 ft 2 kts 257°
2026-04-27 18:16 60.28050 5.22383 152 ft 6 kts 258°
2026-04-27 18:16 60.28072 5.22248 152 ft 14 kts 322°
2026-04-27 18:16 60.28095 5.22232 152 ft 0 kts 351°
2026-04-27 18:17 60.28096 5.22232 152 ft 2 kts 351°
2026-04-27 18:17 60.28302 5.22163 154 ft 64 kts 351°
2026-04-27 18:17 60.28950 5.21946 162 ft 123 kts 351°
2026-04-27 18:17 60.29975 5.21601 196 ft 171 kts 350°
2026-04-27 18:18 60.31152 5.21210 910 ft 168 kts 350°
2026-04-27 18:18 60.32282 5.20860 1897 ft 158 kts 351°
2026-04-27 18:18 60.33415 5.20505 2447 ft 175 kts 351°
2026-04-27 18:18 60.34742 5.20081 2678 ft 208 kts 351°
2026-04-27 18:19 60.36249 5.19588 2949 ft 229 kts 351°
2026-04-27 18:19 60.37877 5.19044 3343 ft 249 kts 351°
2026-04-27 18:19 60.39641 5.18442 3925 ft 262 kts 351°
2026-04-27 18:19 60.41435 5.17822 4817 ft 261 kts 351°
2026-04-27 18:20 60.43229 5.17195 5696 ft 262 kts 351°
2026-04-27 18:20 60.45017 5.16570 6513 ft 265 kts 350°
2026-04-27 18:20 60.46805 5.15542 7300 ft 268 kts 330°
2026-04-27 18:20 60.48118 5.12893 8114 ft 270 kts 301°
2026-04-27 18:21 60.48689 5.09309 8843 ft 277 kts 276°
2026-04-27 18:21 60.48553 5.05384 9581 ft 282 kts 262°
2026-04-27 18:21 60.47966 5.01548 10227 ft 292 kts 239°
2026-04-27 18:21 60.46490 4.98646 10899 ft 298 kts 210°
2026-04-27 18:22 60.44481 4.97391 11086 ft 321 kts 181°
2026-04-27 18:22 60.42169 4.97770 11349 ft 340 kts 172°
2026-04-27 18:22 60.39749 4.98490 11496 ft 361 kts 171°
2026-04-27 18:22 60.37210 4.99203 11912 ft 372 kts 173°
2026-04-27 18:23 60.34618 4.99700 12561 ft 376 kts 175°
2026-04-27 18:23 60.32008 5.00149 13271 ft 378 kts 174°
2026-04-27 18:23 60.29370 5.00647 13913 ft 383 kts 174°
2026-04-27 18:23 60.26703 5.01221 14503 ft 387 kts 172°
2026-04-27 18:24 60.24060 5.02055 15061 ft 391 kts 169°
2026-04-27 18:24 60.21348 5.03184 15634 ft 395 kts 167°
2026-04-27 18:24 60.18655 5.04422 16188 ft 399 kts 167°
2026-04-27 18:24 60.15931 5.05654 16728 ft 404 kts 165°
2026-04-27 18:25 60.13229 5.07272 17258 ft 408 kts 159°
2026-04-27 18:25 60.10590 5.09420 17804 ft 411 kts 154°
2026-04-27 18:25 60.08004 5.11890 18359 ft 414 kts 153°
2026-04-27 18:25 60.05398 5.14426 18862 ft 418 kts 153°
2026-04-27 18:26 60.02754 5.16908 19361 ft 421 kts 154°
2026-04-27 18:26 60.00076 5.19312 19852 ft 423 kts 155°
2026-04-27 18:26 59.97403 5.21630 20303 ft 427 kts 155°
2026-04-27 18:26 59.94653 5.23971 20747 ft 430 kts 156°
2026-04-27 18:27 59.91888 5.26307 21199 ft 433 kts 156°
2026-04-27 18:27 59.89104 5.28657 21666 ft 436 kts 156°
2026-04-27 18:27 59.86298 5.31030 22134 ft 439 kts 156°
2026-04-27 18:27 59.83481 5.33411 22561 ft 442 kts 156°
2026-04-27 18:28 59.80639 5.35782 22949 ft 445 kts 158°
2026-04-27 18:28 59.77660 5.37602 23200 ft 453 kts 171°
2026-04-27 18:28 59.74522 5.37773 23842 ft 449 kts 182°
2026-04-27 18:28 59.71401 5.37522 24318 ft 450 kts 180°
2026-04-27 18:29 59.68251 5.37811 24441 ft 458 kts 173°
2026-04-27 18:29 59.65074 5.38559 24762 ft 460 kts 172°
2026-04-27 18:29 59.61902 5.39402 25163 ft 460 kts 171°
2026-04-27 18:29 59.58722 5.40281 25514 ft 462 kts 171°
2026-04-27 18:30 59.55524 5.41147 25797 ft 465 kts 172°
2026-04-27 18:30 59.52303 5.41987 26077 ft 468 kts 172°
2026-04-27 18:30 59.49052 5.42810 26384 ft 470 kts 172°
2026-04-27 18:30 59.45801 5.43621 26752 ft 471 kts 171°
2026-04-27 18:31 59.42596 5.44421 27138 ft 471 kts 171°
2026-04-27 18:31 59.39296 5.45261 27416 ft 473 kts 171°
2026-04-27 18:31 59.36027 5.46214 27626 ft 477 kts 169°
2026-04-27 18:31 59.32753 5.47328 27883 ft 479 kts 168°
2026-04-27 18:32 59.29482 5.48602 28194 ft 480 kts 167°
2026-04-27 18:32 59.26248 5.49916 28481 ft 481 kts 167°
2026-04-27 18:32 59.22923 5.51242 28720 ft 484 kts 167°
2026-04-27 18:32 59.19606 5.52512 28957 ft 486 kts 167°
2026-04-27 18:33 59.16305 5.53727 29561 ft 479 kts 167°
2026-04-27 18:33 59.13046 5.54898 30189 ft 474 kts 167°
2026-04-27 18:33 59.09804 5.56055 30451 ft 476 kts 167°
2026-04-27 18:33 59.06522 5.57225 30543 ft 480 kts 167°
2026-04-27 18:34 59.03230 5.58400 30747 ft 482 kts 167°
2026-04-27 18:34 58.99987 5.59557 31094 ft 479 kts 167°
2026-04-27 18:34 58.96712 5.60725 31479 ft 476 kts 167°
2026-04-27 18:34 58.93412 5.61901 31756 ft 476 kts 167°
2026-04-27 18:35 58.90222 5.63313 31881 ft 477 kts 158°
2026-04-27 18:35 58.87235 5.66115 32261 ft 466 kts 144°
2026-04-27 18:35 58.84588 5.69604 32842 ft 457 kts 140°
2026-04-27 18:35 58.82146 5.73408 32962 ft 458 kts 135°
2026-04-27 18:36 58.77473 5.81880 33164 ft 463 kts 132°
2026-04-27 18:36 58.75185 5.86219 33502 ft 460 kts 131°
2026-04-27 18:36 58.72906 5.90519 33854 ft 458 kts 132°
2026-04-27 18:37 58.70611 5.94799 34074 ft 459 kts 132°
2026-04-27 18:37 58.68305 5.99050 34213 ft 461 kts 133°
2026-04-27 18:37 58.65978 6.03297 34405 ft 462 kts 133°
2026-04-27 18:37 58.63642 6.07528 34625 ft 461 kts 133°
2026-04-27 18:38 58.61308 6.11735 34814 ft 461 kts 133°
2026-04-27 18:38 58.58961 6.15956 34913 ft 463 kts 133°
2026-04-27 18:38 58.56607 6.20183 35041 ft 464 kts 133°
2026-04-27 18:38 58.54250 6.24407 35245 ft 464 kts 133°